[[{"header":{"parameterUnit":"m.s-1","parameterCategory":2,"la1":30.2991,"la2":30.254,"lo1":-89.0895,"lo2":-89.0444,"dy":0.0017,"dx":0.0017,"nx":28,"ny":28,"refTime":"2026-02-26T09:00:00:Z","depth":"0","parameterNumber":2,"parameterNumberName":"U-component_of_CURRENTS"},"data":[0,0,0,0,0,0,0,0,0,0,0,0,0,0,0,0,0,0,0,0,0,0,0,0,0,0,0,0,0,0,0,0,0,0,0,0,0,0,0,0,0,0,0,0,0,0,0,0,0,0,0,0,0,0,0,0,0,0,-0.2276,-0.2276,0,-0.23,-0.23,-0.23,-0.2207,-0.2204,-0.2202,-0.2199,-0.2153,-0.2154,-0.2155,0,0,0,0,0,0,0,0,0,0,0,0,0,-0.22,-0.2201,-0.2276,-0.2276,-0.2277,-0.23,-0.23,-0.23,-0.2207,-0.2204,-0.2201,-0.2198,-0.2152,-0.2154,-0.2155,0,0,0,0,0,0,0,0,0,0,0,0,0,-0.2226,-0.2202,-0.2275,-0.2236,-0.2233,-0.23,-0.23,-0.23,-0.2208,-0.2204,-0.22,-0.2197,-0.2152,-0.2154,-0.2155,-0.2239,0,0,-0.216,-0.2161,0,0,0,0,0,0,0,0,-0.2225,-0.2228,-0.2241,-0.2239,-0.2235,-0.2249,-0.2256,-0.2277,-0.2209,-0.2214,-0.2199,-0.2195,-0.2184,-0.2182,-0.2191,-0.2237,-0.2235,-0.216,-0.2161,-0.2162,-0.2162,0,0,0,0,0,0,0,-0.2223,-0.2227,-0.2282,-0.2242,-0.2239,-0.2235,-0.2233,-0.226,-0.2215,-0.2213,-0.2207,-0.2216,-0.218,-0.219,-0.2189,-0.2234,-0.216,-0.2161,-0.2162,-0.2163,-0.2314,-0.2317,0,0,0,0,0,0,-0.2229,-0.2226,-0.2281,-0.2283,-0.2225,-0.2239,-0.2237,-0.2246,-0.2216,-0.221,-0.2219,-0.2212,-0.2189,-0.2188,-0.2187,-0.2241,-0.2162,-0.2163,-0.2164,-0.2311,-0.2315,-0.2318,0,0,0,0,0,0,-0.2227,-0.2233,-0.228,-0.2257,-0.2263,-0.2244,-0.2254,-0.2248,-0.2245,-0.2223,-0.2213,-0.222,-0.2186,-0.2185,-0.2221,-0.224,-0.2164,-0.2165,-0.2308,-0.2313,-0.2317,-0.2377,0,0,0,0,0,0,-0.2225,-0.2233,-0.2239,-0.2258,-0.2265,-0.2332,-0.2258,-0.2252,-0.2258,-0.2248,-0.2221,-0.2213,-0.2183,-0.2219,-0.2222,-0.224,-0.2167,-0.2304,-0.231,-0.2315,-0.2371,-0.2383,-0.2393,0,0,0,0,0,-0.2222,-0.2247,-0.2239,-0.2246,-0.2274,-0.2335,-0.2339,-0.231,-0.2262,-0.2286,-0.2265,-0.2213,-0.2256,-0.2224,-0.2227,-0.2245,-0.2301,-0.2308,-0.2315,-0.2366,-0.238,-0.2393,0,0,0,0,0,0,-0.2213,-0.2241,-0.2232,-0.2261,-0.2302,-0.232,-0.2333,-0.2323,-0.2327,-0.2304,-0.2263,-0.2258,-0.2295,-0.2284,-0.2248,-0.2312,-0.2268,-0.2276,-0.2305,-0.2319,-0.233,-0.2309,-0.2168,0,0,0,0,0,-0.2221,-0.2241,-0.228,-0.2305,-0.2324,-0.2332,-0.2348,-0.2343,-0.2353,-0.2348,-0.2335,-0.2325,-0.2336,-0.2334,-0.235,-0.2396,-0.2344,-0.2411,-0.2422,-0.2431,-0.2421,-0.2357,-0.2358,-0.2341,-0.2341,-0.2341,0,0,-0.2223,-0.2242,-0.2252,-0.2305,-0.232,-0.2374,-0.2331,-0.2371,-0.2401,-0.2348,-0.2378,-0.2373,-0.2362,-0.2402,-0.2416,-0.2385,-0.242,-0.244,-0.2447,-0.2432,-0.2363,-0.2364,-0.2365,-0.2346,-0.2345,-0.2344,0,0,-0.2254,-0.2259,-0.2293,-0.234,-0.2387,-0.2403,-0.242,-0.2458,-0.2452,-0.2513,-0.2464,-0.2468,-0.2511,-0.2483,-0.2477,-0.2569,-0.2487,-0.2585,-0.2609,-0.2548,-0.2547,-0.2545,-0.2507,-0.2501,-0.2579,-0.258,-0.258,0,-0.2255,-0.2297,-0.2317,-0.2376,-0.2401,-0.242,-0.2469,-0.2499,-0.2542,-0.2528,-0.2532,-0.2543,-0.2541,-0.2533,-0.2571,-0.2585,-0.2547,-0.255,-0.2555,-0.2552,-0.2549,-0.251,-0.2503,-0.2583,-0.2583,-0.2583,-0.2582,0,-0.2321,-0.2358,-0.2387,-0.2452,-0.2494,-0.2544,-0.259,-0.2617,-0.2616,-0.2624,-0.2635,-0.2641,-0.2621,-0.2643,-0.2642,-0.2626,-0.2607,-0.2578,-0.2504,-0.2553,-0.2512,-0.2503,-0.2589,-0.2587,-0.2586,-0.2585,0,0,-0.2312,-0.2407,-0.2419,-0.2435,-0.253,-0.2557,-0.262,-0.265,-0.2633,-0.2693,-0.2662,-0.2714,-0.2681,-0.2675,-0.266,-0.2631,-0.2605,-0.2608,-0.2603,-0.2542,-0.2482,-0.2386,-0.2367,-0.2565,-0.2564,-0.2562,-0.2469,0,-0.2348,-0.2435,-0.2483,-0.2549,-0.2584,-0.2618,-0.2656,-0.2684,-0.2698,-0.2688,-0.2679,-0.2669,-0.2703,-0.2679,-0.2662,-0.2614,-0.2581,-0.2634,-0.2469,-0.2465,-0.2347,-0.2352,-0.2231,-0.2129,-0.246,-0.2458,-0.2457,0,-0.2398,-0.2435,-0.2504,-0.2538,-0.2553,-0.2598,-0.2596,-0.2636,-0.2641,-0.2643,-0.2636,-0.2631,-0.2618,-0.2628,-0.2563,-0.2594,-0.2549,-0.2517,-0.251,-0.2384,-0.235,-0.2132,-0.2099,-0.2092,-0.2442,-0.2444,-0.2445,0,-0.2347,-0.2441,-0.2469,-0.25,-0.2563,-0.2565,-0.2583,-0.2604,-0.2599,-0.2597,-0.2584,-0.2572,-0.2547,-0.2506,-0.2485,-0.251,-0.2393,-0.2399,-0.2269,-0.2263,-0.2106,-0.2087,-0.201,-0.2323,-0.2323,-0.2324,-0.2324,0,-0.2357,-0.2375,-0.244,-0.2456,-0.2447,-0.2508,-0.2486,-0.2508,-0.2514,-0.2487,-0.2538,-0.2508,-0.2514,-0.2467,-0.2447,-0.2329,-0.2351,-0.226,-0.2218,-0.2131,-0.2116,-0.2058,-0.2102,-0.232,-0.2321,-0.2322,-0.2322,0,-0.2301,-0.236,-0.2379,-0.2426,-0.2429,-0.2417,-0.2431,-0.2406,-0.244,-0.2407,-0.2405,-0.2437,-0.2372,-0.2362,-0.2279,-0.225,-0.2112,-0.2107,-0.2023,-0.1971,-0.1836,-0.1889,-0.1773,-0.1727,-0.1939,-0.1936,-0.1933,0,-0.2271,-0.2279,-0.2329,-0.2317,-0.2335,-0.2326,-0.2307,-0.2352,-0.2336,-0.2352,-0.232,-0.2285,-0.2214,-0.2084,-0.2008,-0.1904,-0.1959,-0.1763,-0.1779,-0.1793,-0.1822,-0.1885,-0.1861,-0.1618,-0.1613,-0.1609,-0.1605,0,-0.2166,-0.2195,-0.2204,-0.2205,-0.2192,-0.2178,-0.2168,-0.215,-0.2186,-0.2174,-0.2126,-0.2072,-0.1955,-0.1789,-0.1683,-0.1628,-0.1718,-0.1672,-0.1688,-0.1558,-0.1616,-0.1562,-0.1754,-0.1568,-0.1572,-0.1575,-0.1577,-0.1578,-0.2047,-0.2037,-0.2048,-0.2029,-0.2035,-0.2001,-0.1932,-0.1944,-0.1898,-0.1832,-0.1887,-0.1741,-0.1653,-0.146,-0.1407,-0.1296,-0.1406,-0.1277,-0.1341,-0.1406,-0.1349,-0.1472,-0.1237,-0.1239,-0.124,-0.1242,-0.1243,0,-0.1843,-0.1851,-0.1848,-0.1823,-0.1775,-0.1835,-0.1795,-0.1702,-0.1601,-0.1576,-0.1499,-0.1345,-0.1195,-0.1147,-0.105,-0.0999,-0.1014,-0.1012,-0.1086,-0.1076,-0.1155,-0.1128,-0.0854,-0.0854,-0.0854,-0.0854,-0.0854,-0.0854,-0.172,-0.1649,-0.1664,-0.1537,-0.1528,-0.1403,-0.1349,-0.1275,-0.1213,-0.1052,-0.0949,-0.0892,-0.0927,-0.1026,-0.0958,-0.0908,-0.094,-0.0894,-0.0974,-0.1056,-0.1087,-0.1117,-0.11,-0.0825,-0.0825,-0.0827,-0.0827,-0.0828]},{"header":{"parameterUnit":"m.s-1","parameterCategory":2,"la1":30.2991,"la2":30.254,"lo1":-89.0895,"lo2":-89.0444,"dy":0.0017,"dx":0.0017,"nx":28,"ny":28,"refTime":"2026-02-26T09:00:00:Z","depth":"0","parameterNumber":3,"parameterNumberName":"V-component_of_CURRENTS"},"data":[0,0,0,0,0,0,0,0,0,0,0,0,0,0,0,0,0,0,0,0,0,0,0,0,0,0,0,0,0,0,0,0,0,0,0,0,0,0,0,0,0,0,0,0,0,0,0,0,0,0,0,0,0,0,0,0,0,0,0.0471,0.0472,0,0.0559,0.056,0.0561,0.0603,0.0603,0.0603,0.0603,0.0791,0.0796,0.0801,0,0,0,0,0,0,0,0,0,0,0,0,0,0.0309,0.0312,0.0471,0.0472,0.0473,0.0559,0.056,0.0561,0.0603,0.0603,0.0603,0.0603,0.079,0.0796,0.0802,0,0,0,0,0,0,0,0,0,0,0,0,0,0.0386,0.0313,0.0471,0.0505,0.0508,0.0558,0.056,0.0561,0.0603,0.0603,0.0603,0.0603,0.0788,0.0795,0.0803,0.085,0,0,0.0826,0.0829,0,0,0,0,0,0,0,0,0.0382,0.0392,0.0499,0.0502,0.0507,0.057,0.0572,0.0663,0.0603,0.0567,0.0603,0.0603,0.0727,0.0739,0.0754,0.0859,0.0867,0.0826,0.0831,0.0834,0.0836,0,0,0,0,0,0,0,0.0377,0.0389,0.0506,0.05,0.0505,0.0504,0.0516,0.0589,0.0648,0.057,0.0574,0.0583,0.073,0.0747,0.076,0.087,0.0826,0.0833,0.0838,0.0841,0.0966,0.0965,0,0,0,0,0,0,0.0368,0.0384,0.0503,0.0509,0.0443,0.0507,0.052,0.055,0.0645,0.0659,0.0583,0.0585,0.0734,0.0751,0.0766,0.0776,0.0834,0.0841,0.0846,0.0967,0.0966,0.0965,0,0,0,0,0,0,0.0365,0.0379,0.05,0.0446,0.0462,0.0511,0.0543,0.0551,0.0566,0.0654,0.0669,0.0588,0.0735,0.0756,0.0819,0.0786,0.0845,0.0852,0.0969,0.0967,0.0965,0.083,0,0,0,0,0,0,0.036,0.0377,0.0391,0.0447,0.0465,0.0516,0.0544,0.0553,0.0572,0.0575,0.0664,0.0681,0.0736,0.0807,0.0826,0.0797,0.0858,0.097,0.0968,0.0966,0.0836,0.0823,0.0813,0,0,0,0,0,0.0354,0.0369,0.0392,0.0406,0.0485,0.0515,0.0524,0.0557,0.0572,0.0571,0.063,0.0678,0.0805,0.0813,0.0836,0.0808,0.0971,0.0969,0.0966,0.0841,0.0826,0.0813,0,0,0,0,0,0,0.0312,0.0377,0.0403,0.044,0.047,0.0522,0.0522,0.0552,0.0597,0.06,0.0683,0.0705,0.0739,0.0799,0.0805,0.0835,0.0889,0.089,0.0785,0.0773,0.0761,0.0742,0.0864,0,0,0,0,0,0.031,0.0338,0.0392,0.0421,0.0427,0.0474,0.049,0.0514,0.0562,0.0581,0.0645,0.0704,0.0746,0.078,0.0833,0.0869,0.091,0.086,0.0848,0.0838,0.0837,0.0848,0.0837,0.0956,0.0956,0.0956,0,0,0.0308,0.0342,0.0363,0.0413,0.0434,0.0426,0.0483,0.0497,0.0496,0.0598,0.0619,0.0675,0.0747,0.077,0.079,0.0818,0.0827,0.0835,0.0826,0.083,0.0844,0.0833,0.0822,0.0954,0.0954,0.0954,0,0,0.0275,0.0336,0.0322,0.0338,0.0362,0.0394,0.0393,0.044,0.0463,0.0504,0.0552,0.059,0.0682,0.0705,0.0734,0.0699,0.0764,0.0711,0.0645,0.0654,0.0644,0.0636,0.0672,0.0668,0.0706,0.0706,0.0706,0,0.0264,0.026,0.0322,0.0293,0.0291,0.0368,0.0331,0.0371,0.0437,0.0453,0.0494,0.0583,0.0644,0.065,0.063,0.0671,0.0699,0.0687,0.0637,0.063,0.0624,0.0663,0.0661,0.0699,0.07,0.0701,0.0701,0,0.021,0.0195,0.0182,0.0177,0.0186,0.0176,0.0224,0.0249,0.0299,0.0343,0.0379,0.0462,0.0512,0.0524,0.0574,0.0549,0.059,0.0617,0.0666,0.0604,0.065,0.0649,0.0689,0.0692,0.0694,0.0696,0,0,0.0217,0.0153,0.0149,0.01,0.012,0.0119,0.0121,0.0144,0.0146,0.0226,0.0229,0.0297,0.0352,0.0387,0.0442,0.0457,0.0439,0.0513,0.0516,0.0539,0.0476,0.0537,0.0544,0.0451,0.045,0.0449,0.0524,0,0.0149,0.0045,0.005,-0.0034,-0.009,-0.0032,-0.0037,0.0002,0.0064,0.0098,0.0184,0.0219,0.0296,0.0314,0.0337,0.0421,0.0432,0.0417,0.0543,0.0547,0.06,0.0543,0.0575,0.0647,0.0525,0.0525,0.0525,0,0.0093,0.0021,-0.0094,-0.0171,-0.0185,-0.0204,-0.0195,-0.0189,-0.0114,-0.0065,-0.0006,0.008,0.013,0.0198,0.0302,0.029,0.0365,0.0431,0.0436,0.0542,0.0607,0.0692,0.0652,0.079,0.0525,0.0525,0.0525,0,0.0045,-0.0069,-0.0171,-0.0195,-0.026,-0.0283,-0.0287,-0.0237,-0.0228,-0.0164,-0.0135,-0.0051,0.0011,0.0097,0.0273,0.0272,0.0399,0.0415,0.0539,0.0546,0.0625,0.064,0.0727,0.0458,0.0458,0.0458,0.0457,0,-0.0023,-0.0101,-0.0206,-0.0261,-0.0357,-0.0362,-0.041,-0.0386,-0.0348,-0.033,-0.0225,-0.0171,-0.0013,0.0106,0.023,0.0406,0.0369,0.0521,0.0559,0.058,0.059,0.0758,0.0808,0.0461,0.046,0.0459,0.0459,0,-0.0054,-0.0127,-0.0255,-0.036,-0.0393,-0.045,-0.0493,-0.0507,-0.0462,-0.0433,-0.0415,-0.0261,-0.0094,0.008,0.0254,0.0369,0.06,0.0578,0.0612,0.0652,0.0876,0.0916,0.1037,0.1126,0.0701,0.0702,0.0704,0,-0.0086,-0.0163,-0.032,-0.0391,-0.0441,-0.0522,-0.0565,-0.0563,-0.0565,-0.0464,-0.0448,-0.028,-0.0118,0.0171,0.0381,0.0597,0.0698,0.0745,0.0738,0.0888,0.0961,0.0981,0.1047,0.0795,0.0797,0.0799,0.08,0,-0.0144,-0.0193,-0.0287,-0.0431,-0.0516,-0.0616,-0.0669,-0.0693,-0.0653,-0.059,-0.0451,-0.0313,-0.0013,0.0273,0.0549,0.0676,0.0844,0.0787,0.0923,0.1021,0.1067,0.1172,0.0767,0.0816,0.0814,0.0813,0.0812,0.0811,-0.0162,-0.0228,-0.0338,-0.0459,-0.0562,-0.0663,-0.0709,-0.0717,-0.0695,-0.0534,-0.043,-0.0123,0.0197,0.0602,0.0739,0.1035,0.0992,0.1128,0.116,0.1165,0.1256,0.0898,0.1001,0.1,0.1,0.1,0.0999,0,-0.0196,-0.0252,-0.0358,-0.0499,-0.0584,-0.0644,-0.0736,-0.0729,-0.0663,-0.043,-0.0236,0.0248,0.0583,0.0888,0.1236,0.1401,0.1427,0.1487,0.152,0.1568,0.1241,0.1253,0.1439,0.1439,0.1439,0.1439,0.1439,0.1438,-0.0213,-0.0298,-0.0343,-0.0472,-0.0555,-0.0642,-0.0684,-0.0645,-0.0502,-0.0126,0.0252,0.0536,0.0899,0.1367,0.1707,0.1742,0.1894,0.1868,0.1959,0.1733,0.1702,0.1672,0.1697,0.1973,0.1973,0.2283,0.2286,0.2288]}],[{"header":{"parameterUnit":"m.s-1","parameterCategory":2,"la1":30.2991,"la2":30.254,"lo1":-89.0895,"lo2":-89.0444,"dy":0.0017,"dx":0.0017,"nx":28,"ny":28,"refTime":"2026-02-26T09:00:00:Z","depth":"2","parameterNumber":2,"parameterNumberName":"U-component_of_CURRENTS"},"data":[0,0,0,0,0,0,0,0,0,0,0,0,0,0,0,0,0,0,0,0,0,0,0,0,0,0,0,0,0,0,0,0,0,0,0,0,0,0,0,0,0,0,0,0,0,0,0,0,0,0,0,0,0,0,0,0,0,0,-0.2035,-0.2036,0,-0.2062,-0.2062,-0.2062,-0.201,-0.2009,-0.2008,-0.2007,-0.2025,-0.2027,-0.2028,0,0,0,0,0,0,0,0,0,0,0,0,0,-0.1941,-0.1943,-0.2035,-0.2036,-0.2037,-0.2062,-0.2062,-0.2062,-0.2011,-0.2009,-0.2008,-0.2006,-0.2024,-0.2026,-0.2029,0,0,0,0,0,0,0,0,0,0,0,0,0,-0.1972,-0.1943,-0.2035,-0.2017,-0.2016,-0.2062,-0.2062,-0.2062,-0.2011,-0.2009,-0.2007,-0.2005,-0.2024,-0.2026,-0.2029,-0.2084,0,0,-0.2037,-0.2038,0,0,0,0,0,0,0,0,-0.1971,-0.1975,-0.2019,-0.2019,-0.2018,-0.2035,-0.2036,-0.207,-0.2012,-0.2008,-0.2007,-0.2004,-0.2032,-0.2034,-0.2037,-0.2084,-0.2085,-0.2037,-0.2038,-0.2039,-0.204,0,0,0,0,0,0,0,-0.1968,-0.1974,-0.2041,-0.202,-0.202,-0.2009,-0.2011,-0.2042,-0.2027,-0.2009,-0.2006,-0.2017,-0.203,-0.2035,-0.2037,-0.2086,-0.2037,-0.2039,-0.2041,-0.2042,-0.2201,-0.2204,0,0,0,0,0,0,-0.1977,-0.1972,-0.2041,-0.2043,-0.1994,-0.2013,-0.2014,-0.2028,-0.2027,-0.2026,-0.2018,-0.2014,-0.2031,-0.2034,-0.2038,-0.2109,-0.2039,-0.2042,-0.2043,-0.2198,-0.2202,-0.2205,0,0,0,0,0,0,-0.1975,-0.1983,-0.204,-0.2011,-0.2018,-0.2017,-0.2032,-0.2029,-0.2037,-0.2035,-0.2033,-0.2029,-0.203,-0.2034,-0.2073,-0.2109,-0.2043,-0.2045,-0.2195,-0.2199,-0.2203,-0.2249,0,0,0,0,0,0,-0.1972,-0.1982,-0.2001,-0.2012,-0.202,-0.2078,-0.2034,-0.2031,-0.2048,-0.2043,-0.2045,-0.2043,-0.2028,-0.207,-0.2076,-0.2111,-0.2047,-0.2192,-0.2197,-0.2202,-0.2244,-0.2254,-0.2262,0,0,0,0,0,-0.1968,-0.1993,-0.2002,-0.2011,-0.2044,-0.208,-0.2084,-0.2072,-0.2051,-0.2068,-0.2066,-0.2043,-0.2106,-0.2074,-0.2081,-0.2118,-0.2189,-0.2196,-0.2201,-0.224,-0.2252,-0.2262,0,0,0,0,0,0,-0.1951,-0.1991,-0.2,-0.2034,-0.2065,-0.2073,-0.2083,-0.2087,-0.2099,-0.2089,-0.2077,-0.2078,-0.2128,-0.2128,-0.2093,-0.2183,-0.2146,-0.2154,-0.2173,-0.2185,-0.2194,-0.2166,-0.2049,0,0,0,0,0,-0.1965,-0.1998,-0.2032,-0.2061,-0.2073,-0.2085,-0.21,-0.2102,-0.2114,-0.2115,-0.2124,-0.2137,-0.2162,-0.2174,-0.2198,-0.225,-0.2209,-0.2282,-0.2291,-0.2299,-0.2284,-0.2245,-0.2247,-0.2225,-0.2224,-0.2224,0,0,-0.1971,-0.1994,-0.2015,-0.2062,-0.2073,-0.2116,-0.2087,-0.2115,-0.2144,-0.212,-0.2158,-0.2174,-0.2186,-0.2235,-0.2258,-0.2235,-0.2292,-0.2306,-0.2312,-0.2293,-0.2251,-0.2252,-0.2253,-0.2229,-0.2228,-0.2227,0,0,-0.199,-0.2013,-0.2046,-0.2076,-0.2114,-0.2138,-0.2155,-0.2185,-0.2181,-0.2243,-0.2222,-0.2248,-0.2312,-0.2303,-0.2311,-0.2393,-0.2345,-0.2425,-0.2442,-0.2405,-0.2405,-0.2404,-0.2372,-0.2367,-0.2425,-0.2425,-0.2425,0,-0.1993,-0.2036,-0.2062,-0.2096,-0.2118,-0.2154,-0.2189,-0.2214,-0.2258,-0.2253,-0.2265,-0.2321,-0.2336,-0.2354,-0.2388,-0.2408,-0.2382,-0.2392,-0.2411,-0.241,-0.2408,-0.2374,-0.2369,-0.2428,-0.2427,-0.2427,-0.2427,0,-0.2031,-0.2072,-0.2086,-0.2151,-0.2187,-0.222,-0.2263,-0.2297,-0.2321,-0.234,-0.2371,-0.239,-0.2406,-0.2439,-0.2444,-0.2453,-0.2439,-0.2425,-0.2368,-0.2412,-0.2375,-0.2369,-0.2432,-0.2431,-0.243,-0.2429,0,0,-0.2001,-0.2098,-0.2099,-0.2126,-0.2208,-0.2233,-0.2292,-0.2335,-0.2345,-0.2404,-0.2401,-0.2465,-0.2457,-0.2465,-0.2468,-0.2454,-0.2441,-0.2446,-0.2443,-0.2387,-0.2363,-0.2273,-0.2257,-0.2428,-0.2427,-0.2426,-0.2346,0,-0.2012,-0.2084,-0.2131,-0.2197,-0.2231,-0.2277,-0.2324,-0.2369,-0.2403,-0.2422,-0.2424,-0.2444,-0.247,-0.2474,-0.2467,-0.2449,-0.2424,-0.2463,-0.2351,-0.2347,-0.2239,-0.2246,-0.2086,-0.1994,-0.2339,-0.2338,-0.2337,0,-0.2015,-0.2063,-0.2131,-0.2198,-0.2211,-0.2264,-0.2308,-0.2353,-0.2392,-0.2407,-0.2423,-0.2432,-0.2433,-0.2442,-0.2404,-0.2431,-0.24,-0.2381,-0.2377,-0.2263,-0.2244,-0.2006,-0.1968,-0.2325,-0.2326,-0.2327,-0.2328,0,-0.1951,-0.2045,-0.2096,-0.2122,-0.2225,-0.2238,-0.2285,-0.234,-0.2352,-0.2381,-0.2394,-0.2399,-0.2391,-0.2365,-0.2352,-0.2374,-0.2293,-0.2305,-0.2187,-0.2181,-0.2003,-0.1983,-0.2247,-0.2247,-0.2247,-0.2247,-0.2248,0,-0.1919,-0.1951,-0.207,-0.2085,-0.2124,-0.2198,-0.222,-0.2265,-0.2308,-0.2313,-0.2366,-0.2356,-0.2373,-0.2342,-0.2326,-0.223,-0.2261,-0.2173,-0.2144,-0.2021,-0.2003,-0.2258,-0.226,-0.2244,-0.2245,-0.2246,-0.2246,0,-0.1848,-0.1921,-0.1977,-0.2074,-0.2096,-0.212,-0.218,-0.2185,-0.2251,-0.2255,-0.2261,-0.2309,-0.2263,-0.2258,-0.2204,-0.2174,-0.2104,-0.2057,-0.1916,-0.1872,-0.2027,-0.2034,-0.1912,-0.1908,-0.1905,-0.1902,-0.1899,0,-0.1822,-0.1854,-0.1956,-0.1954,-0.1992,-0.2036,-0.205,-0.2138,-0.2148,-0.2212,-0.2197,-0.2184,-0.2131,-0.2033,-0.1959,-0.1866,-0.1976,-0.1696,-0.17,-0.2003,-0.1988,-0.2001,-0.2011,-0.1497,-0.1491,-0.1487,-0.1483,0,-0.1762,-0.1811,-0.1841,-0.1865,-0.1875,-0.1901,-0.1933,-0.1944,-0.2034,-0.2046,-0.2034,-0.1996,-0.1903,-0.173,-0.1637,-0.1581,-0.1703,-0.1599,-0.1918,-0.1613,-0.1606,-0.1594,-0.1619,-0.1443,-0.1447,-0.145,-0.1452,-0.1454,-0.1708,-0.1704,-0.1736,-0.1741,-0.1747,-0.1737,-0.1708,-0.1753,-0.1757,-0.1748,-0.181,-0.1693,-0.1664,-0.1402,-0.132,-0.1265,-0.1389,-0.1358,-0.1374,-0.1394,-0.1366,-0.1354,-0.1139,-0.1142,-0.1143,-0.1145,-0.1147,0,-0.1602,-0.1595,-0.1596,-0.1578,-0.153,-0.1594,-0.1595,-0.1539,-0.1494,-0.1515,-0.1471,-0.1267,-0.1132,-0.1109,-0.0938,-0.0915,-0.0933,-0.0904,-0.0932,-0.0971,-0.1005,-0.0961,-0.0625,-0.0624,-0.0622,-0.0621,0,0,-0.1532,-0.1479,-0.1476,-0.136,-0.1346,-0.1251,-0.1225,-0.1177,-0.1153,-0.1071,-0.101,-0.1059,-0.1055,-0.0835,-0.0791,-0.0677,-0.0825,-0.0643,-0.1057,-0.1128,-0.1161,-0.1254,-0.1227,0,0,0,0,0]},{"header":{"parameterUnit":"m.s-1","parameterCategory":2,"la1":30.2991,"la2":30.254,"lo1":-89.0895,"lo2":-89.0444,"dy":0.0017,"dx":0.0017,"nx":28,"ny":28,"refTime":"2026-02-26T09:00:00:Z","depth":"2","parameterNumber":3,"parameterNumberName":"V-component_of_CURRENTS"},"data":[0,0,0,0,0,0,0,0,0,0,0,0,0,0,0,0,0,0,0,0,0,0,0,0,0,0,0,0,0,0,0,0,0,0,0,0,0,0,0,0,0,0,0,0,0,0,0,0,0,0,0,0,0,0,0,0,0,0,-0.0216,-0.0215,0,-0.0206,-0.0206,-0.0207,-0.0167,-0.0166,-0.0164,-0.0163,0.0021,0.0024,0.0028,0,0,0,0,0,0,0,0,0,0,0,0,0,-0.027,-0.027,-0.0216,-0.0215,-0.0215,-0.0206,-0.0206,-0.0207,-0.0167,-0.0166,-0.0164,-0.0162,0.002,0.0024,0.0028,0,0,0,0,0,0,0,0,0,0,0,0,0,-0.0258,-0.0269,-0.0216,-0.0189,-0.0186,-0.0206,-0.0206,-0.0207,-0.0168,-0.0166,-0.0163,-0.0161,0.0018,0.0023,0.0028,0.0016,0,0,0.0044,0.0047,0,0,0,0,0,0,0,0,-0.0259,-0.0257,-0.0194,-0.0191,-0.0188,-0.018,-0.0158,-0.0121,-0.0168,-0.0182,-0.0163,-0.016,-0.0028,-0.0019,-0.0033,0.0025,0.0033,0.0045,0.0048,0.005,0.0052,0,0,0,0,0,0,0,-0.0259,-0.0257,-0.0218,-0.0193,-0.019,-0.0201,-0.0197,-0.0152,-0.0119,-0.018,-0.0176,-0.0165,-0.0026,-0.0039,-0.0028,0.0036,0.0045,0.0049,0.0053,0.0055,0.0192,0.0193,0,0,0,0,0,0,-0.0247,-0.0258,-0.0219,-0.0217,-0.0211,-0.0201,-0.0197,-0.019,-0.0123,-0.011,-0.0167,-0.0163,-0.0049,-0.0034,-0.0021,0.0037,0.005,0.0055,0.0058,0.0192,0.0192,0.0193,0,0,0,0,0,0,-0.0248,-0.0244,-0.0219,-0.0232,-0.0229,-0.0201,-0.0195,-0.0191,-0.0175,-0.0114,-0.0099,-0.0151,-0.0046,-0.0028,0.0032,0.0042,0.0058,0.0062,0.0191,0.0192,0.0192,0.011,0,0,0,0,0,0,-0.025,-0.0245,-0.024,-0.0231,-0.0227,-0.0221,-0.0196,-0.0192,-0.017,-0.0165,-0.0095,-0.0078,-0.0043,0.0023,0.0037,0.005,0.0067,0.019,0.0191,0.0192,0.0112,0.0108,0.0104,0,0,0,0,0,-0.0252,-0.0263,-0.024,-0.0235,-0.022,-0.0221,-0.0222,-0.0199,-0.0171,-0.0175,-0.0124,-0.0079,0.004,0.0027,0.0043,0.0058,0.019,0.0191,0.0192,0.0114,0.0109,0.0104,0,0,0,0,0,0,-0.0293,-0.0258,-0.0234,-0.0233,-0.0218,-0.0211,-0.0218,-0.0191,-0.0161,-0.0145,-0.0081,-0.0062,-0.0005,0.004,0.0024,0.0103,0.0126,0.013,0.0061,0.0057,0.0053,0.0039,0.0071,0,0,0,0,0,-0.0296,-0.0294,-0.0258,-0.0263,-0.0252,-0.0229,-0.0224,-0.0204,-0.0174,-0.0159,-0.0113,-0.0052,0.0003,0.0042,0.0086,0.0126,0.0164,0.0151,0.0147,0.0143,0.0145,0.0191,0.019,0.0196,0.0196,0.0196,0,0,-0.031,-0.0297,-0.0291,-0.0271,-0.0262,-0.0257,-0.0223,-0.0217,-0.0212,-0.0141,-0.0124,-0.0066,0.0011,0.0048,0.008,0.0094,0.0162,0.0145,0.0141,0.0144,0.0192,0.0191,0.019,0.0197,0.0197,0.0197,0,0,-0.0355,-0.0328,-0.0337,-0.0324,-0.0299,-0.0282,-0.0269,-0.0248,-0.0235,-0.0203,-0.0151,-0.0091,-0.0013,0.0028,0.0069,0.0075,0.0135,0.0105,0.0078,0.0122,0.0121,0.0121,0.0161,0.0165,0.0107,0.0107,0.0107,0,-0.0376,-0.0378,-0.0343,-0.0351,-0.0345,-0.0286,-0.0293,-0.0278,-0.0242,-0.0224,-0.0197,-0.0085,-0.0025,0.0034,0.0035,0.0065,0.0101,0.0084,0.0114,0.0115,0.0116,0.0158,0.0163,0.0103,0.0103,0.0104,0.0104,0,-0.0431,-0.0418,-0.043,-0.0411,-0.04,-0.0403,-0.036,-0.0343,-0.0301,-0.0271,-0.0208,-0.0141,-0.0068,-0.0038,0.0005,0.0049,0.0075,0.0095,0.0117,0.011,0.0155,0.0162,0.0097,0.0099,0.01,0.0101,0,0,-0.0522,-0.0473,-0.0478,-0.0466,-0.043,-0.043,-0.0413,-0.0379,-0.0355,-0.0304,-0.0273,-0.0185,-0.0135,-0.0087,-0.0029,0.0015,0.0051,0.0058,0.0062,0.0082,0.015,0.0179,0.0191,0.0076,0.0077,0.0078,0.0175,0,-0.0578,-0.0587,-0.0556,-0.0561,-0.0553,-0.0498,-0.0487,-0.0443,-0.0392,-0.035,-0.0264,-0.0208,-0.0158,-0.0117,-0.0068,0.0028,0.0068,0.0023,0.0169,0.0174,0.0187,0.0199,0.0177,0.0262,0.0182,0.0184,0.0184,0,-0.0665,-0.0641,-0.0649,-0.0607,-0.0603,-0.0599,-0.0558,-0.0539,-0.0454,-0.0411,-0.0336,-0.0263,-0.0181,-0.0144,-0.0,-0.0029,0.0052,0.012,0.0126,0.0188,0.0217,0.0261,0.0279,0.0197,0.0196,0.0195,0.0194,0,-0.0758,-0.0729,-0.073,-0.072,-0.0652,-0.0653,-0.0626,-0.0556,-0.0535,-0.0449,-0.0409,-0.0303,-0.0238,-0.0131,0.0018,0.0012,0.0176,0.0183,0.0282,0.0285,0.0314,0.0317,0.0273,0.0273,0.0272,0.0272,0.0272,0,-0.085,-0.0852,-0.0767,-0.0766,-0.0765,-0.0709,-0.0704,-0.0659,-0.0588,-0.0549,-0.0448,-0.0389,-0.0229,-0.011,0.0008,0.0176,0.0169,0.0284,0.0315,0.0285,0.0285,0.0268,0.0266,0.0276,0.0275,0.0274,0.0274,0,-0.0957,-0.0903,-0.0894,-0.0823,-0.0807,-0.0809,-0.0763,-0.0747,-0.0672,-0.0619,-0.0593,-0.0444,-0.028,-0.012,0.0074,0.0169,0.0318,0.0375,0.0329,0.0354,0.0397,0.039,0.0489,0.049,0.0492,0.0493,0.0495,0,-0.101,-0.101,-0.0948,-0.0941,-0.0913,-0.0894,-0.0877,-0.0801,-0.0775,-0.0644,-0.0621,-0.0453,-0.0313,-0.0023,0.0173,0.0382,0.0377,0.0471,0.0452,0.04,0.0421,0.0411,0.0402,0.0457,0.0458,0.0459,0.0459,0,-0.109,-0.1068,-0.1049,-0.1038,-0.1025,-0.0996,-0.0966,-0.0954,-0.0847,-0.0769,-0.0632,-0.0508,-0.0221,0.0023,0.0285,0.0398,0.0434,0.049,0.0462,0.0402,0.0377,0.0395,0.0386,0.0464,0.0464,0.0463,0.0463,0.0463,-0.1154,-0.116,-0.1139,-0.1132,-0.112,-0.1094,-0.1083,-0.1015,-0.0942,-0.0798,-0.0657,-0.0429,-0.0207,0.0185,0.0361,0.0517,0.0513,0.0549,0.0544,0.0539,0.0514,0.0494,0.0598,0.0598,0.0598,0.0598,0.0599,0,-0.1202,-0.121,-0.1228,-0.1211,-0.1222,-0.1182,-0.1132,-0.1084,-0.0987,-0.0794,-0.0617,-0.033,-0.0042,0.0183,0.0442,0.0591,0.0566,0.0605,0.0544,0.0539,0.0534,0.0505,0.0589,0.0589,0.0589,0.059,0,0,-0.1228,-0.1255,-0.1253,-0.1287,-0.1287,-0.1276,-0.1242,-0.1131,-0.0983,-0.077,-0.0565,-0.0308,-0.0018,0.0161,0.0345,0.0477,0.0463,0.0482,0.0476,0.0376,0.0369,0.049,0.0439,0,0,0,0,0]}],[{"header":{"parameterUnit":"m.s-1","parameterCategory":2,"la1":30.2991,"la2":30.254,"lo1":-89.0895,"lo2":-89.0444,"dy":0.0017,"dx":0.0017,"nx":28,"ny":28,"refTime":"2026-02-26T09:00:00:Z","depth":"4","parameterNumber":2,"parameterNumberName":"U-component_of_CURRENTS"},"data":[0,0,0,0,0,0,0,0,0,0,0,0,0,0,0,0,0,0,0,0,0,0,0,0,0,0,0,0,0,0,0,0,0,0,0,0,0,0,0,0,0,0,0,0,0,0,0,0,0,0,0,0,0,0,0,0,0,0,-0.1192,-0.1193,0,-0.1243,-0.1243,-0.1244,-0.1275,-0.1275,-0.1276,-0.1276,-0.1349,-0.1351,-0.1352,0,0,0,0,0,0,0,0,0,0,0,0,0,-0.1142,-0.1143,-0.1192,-0.1193,-0.1194,-0.1243,-0.1243,-0.1244,-0.1275,-0.1275,-0.1276,-0.1276,-0.1349,-0.1351,-0.1352,0,0,0,0,0,0,0,0,0,0,0,0,0,-0.1173,-0.1143,-0.1192,-0.1217,-0.122,-0.1243,-0.1243,-0.1244,-0.1275,-0.1275,-0.1276,-0.1276,-0.1348,-0.135,-0.1353,-0.1356,0,0,-0.136,-0.1361,0,0,0,0,0,0,0,0,-0.1171,-0.1175,-0.1212,-0.1215,-0.1219,-0.1255,-0.1253,-0.1284,-0.1274,-0.1251,-0.1276,-0.1277,-0.1321,-0.1326,-0.133,-0.136,-0.1363,-0.136,-0.1362,-0.1363,-0.1364,0,0,0,0,0,0,0,-0.1169,-0.1173,-0.121,-0.1213,-0.1217,-0.1233,-0.1237,-0.1259,-0.1281,-0.1253,-0.1256,-0.1266,-0.1323,-0.1328,-0.1332,-0.1364,-0.136,-0.1362,-0.1364,-0.1365,-0.1495,-0.1497,0,0,0,0,0,0,-0.1166,-0.1171,-0.1208,-0.1212,-0.1199,-0.1233,-0.1238,-0.1241,-0.128,-0.1287,-0.1265,-0.1267,-0.1323,-0.1329,-0.1335,-0.1425,-0.1363,-0.1365,-0.1366,-0.1493,-0.1496,-0.1498,0,0,0,0,0,0,-0.1165,-0.1169,-0.1206,-0.1195,-0.1201,-0.1234,-0.1236,-0.1242,-0.1271,-0.1289,-0.1297,-0.1292,-0.1324,-0.1332,-0.1389,-0.1425,-0.1366,-0.1368,-0.1491,-0.1494,-0.1497,-0.1551,0,0,0,0,0,0,-0.1163,-0.1167,-0.1177,-0.1194,-0.1202,-0.124,-0.1236,-0.1242,-0.1275,-0.1279,-0.1314,-0.132,-0.1325,-0.1386,-0.1392,-0.1427,-0.137,-0.1488,-0.1492,-0.1496,-0.1547,-0.1556,-0.1563,0,0,0,0,0,-0.1161,-0.1169,-0.1177,-0.1183,-0.1211,-0.1241,-0.1247,-0.127,-0.1276,-0.1296,-0.1329,-0.132,-0.1414,-0.139,-0.1396,-0.1433,-0.1487,-0.1491,-0.1496,-0.1543,-0.1554,-0.1563,0,0,0,0,0,0,-0.1153,-0.1173,-0.1183,-0.1198,-0.1228,-0.1248,-0.1268,-0.1283,-0.1322,-0.1332,-0.1346,-0.1355,-0.142,-0.1421,-0.1394,-0.1483,-0.1449,-0.1455,-0.1483,-0.1493,-0.1501,-0.1498,-0.1372,0,0,0,0,0,-0.1155,-0.1166,-0.1194,-0.1208,-0.1224,-0.125,-0.1268,-0.1287,-0.1319,-0.1337,-0.1366,-0.14,-0.1439,-0.1462,-0.1493,-0.1539,-0.1526,-0.1568,-0.1576,-0.1583,-0.1587,-0.1615,-0.1625,-0.1513,-0.1513,-0.1513,0,0,-0.1153,-0.117,-0.1175,-0.1208,-0.123,-0.1263,-0.1262,-0.1298,-0.1338,-0.1339,-0.1407,-0.1433,-0.146,-0.1518,-0.1546,-0.1526,-0.1604,-0.1589,-0.1594,-0.1594,-0.1621,-0.1631,-0.1641,-0.1516,-0.1516,-0.1515,0,0,-0.1161,-0.1174,-0.1191,-0.1221,-0.1265,-0.1283,-0.13,-0.1341,-0.1374,-0.1437,-0.1453,-0.1505,-0.1558,-0.1588,-0.1608,-0.168,-0.1649,-0.1689,-0.1727,-0.1754,-0.1763,-0.1771,-0.1744,-0.1749,-0.169,-0.1691,-0.1691,0,-0.1161,-0.1188,-0.1204,-0.1238,-0.127,-0.1296,-0.1335,-0.137,-0.1431,-0.1467,-0.147,-0.1571,-0.1593,-0.1664,-0.1691,-0.1699,-0.1688,-0.1684,-0.1763,-0.1771,-0.1778,-0.1749,-0.1754,-0.1694,-0.1693,-0.1693,-0.1693,0,-0.1181,-0.1218,-0.1234,-0.1284,-0.132,-0.1357,-0.1407,-0.1455,-0.1496,-0.1533,-0.1621,-0.1658,-0.1715,-0.1733,-0.1735,-0.1803,-0.1768,-0.177,-0.1733,-0.1792,-0.1758,-0.1762,-0.1698,-0.1697,-0.1696,-0.1695,0,0,-0.114,-0.123,-0.1239,-0.1284,-0.1351,-0.1383,-0.1453,-0.1525,-0.1581,-0.1641,-0.1711,-0.1784,-0.18,-0.1823,-0.1837,-0.1861,-0.1894,-0.1837,-0.1837,-0.1799,-0.1916,-0.1763,-0.1752,-0.191,-0.1912,-0.1913,-0.1862,0,-0.1156,-0.1228,-0.1273,-0.1353,-0.1393,-0.1454,-0.1521,-0.1592,-0.165,-0.1723,-0.1771,-0.184,-0.1836,-0.1867,-0.1896,-0.1901,-0.1912,-0.1905,-0.1873,-0.1871,-0.1721,-0.1755,-0.1919,-0.1865,-0.1865,-0.1866,-0.1867,0,-0.1156,-0.1211,-0.1288,-0.1403,-0.1428,-0.1486,-0.1594,-0.1661,-0.1758,-0.1806,-0.1872,-0.1901,-0.1956,-0.1942,-0.1972,-0.1966,-0.1948,-0.1939,-0.1937,-0.1779,-0.1727,-0.18,-0.1873,-0.1873,-0.1872,-0.1872,-0.1871,0,-0.1106,-0.1222,-0.1287,-0.1324,-0.1449,-0.1512,-0.1583,-0.1687,-0.175,-0.1854,-0.1892,-0.1964,-0.1993,-0.2005,-0.1979,-0.1985,-0.198,-0.1987,-0.1827,-0.1814,-0.1941,-0.1934,-0.2007,-0.2007,-0.2007,-0.2007,-0.2007,0,-0.1089,-0.1148,-0.1279,-0.1313,-0.1408,-0.1506,-0.1609,-0.1687,-0.1795,-0.1848,-0.1929,-0.1953,-0.2013,-0.201,-0.199,-0.1897,-0.1988,-0.1827,-0.1799,-0.1961,-0.1957,-0.1942,-0.1935,-0.2005,-0.2006,-0.2006,-0.2006,0,-0.1024,-0.1106,-0.1191,-0.1335,-0.1385,-0.1452,-0.1607,-0.1668,-0.1781,-0.1846,-0.1874,-0.1951,-0.193,-0.1944,-0.1944,-0.1884,-0.1832,-0.1778,-0.1913,-0.1894,-0.1642,-0.1639,-0.1598,-0.1592,-0.1587,-0.1583,-0.158,0,-0.0998,-0.1034,-0.1179,-0.1223,-0.1295,-0.1413,-0.1481,-0.1635,-0.1688,-0.1812,-0.1815,-0.1845,-0.1866,-0.1723,-0.1769,-0.1702,-0.1687,-0.1652,-0.1684,-0.1627,-0.1605,-0.1609,-0.1612,-0.1572,-0.1571,-0.157,-0.1569,0,-0.0946,-0.1001,-0.1062,-0.1145,-0.1227,-0.1316,-0.1426,-0.1454,-0.1605,-0.1719,-0.1694,-0.1674,-0.1638,-0.1612,-0.1562,-0.1527,-0.1678,-0.1602,-0.1613,-0.1643,-0.1596,-0.1579,-0.1588,-0.1552,-0.1555,-0.1556,-0.1557,0,-0.0899,-0.0922,-0.0993,-0.1059,-0.1141,-0.1183,-0.1268,-0.1323,-0.1395,-0.1537,-0.1514,-0.1541,-0.1607,-0.1518,-0.1478,-0.1421,-0.1409,-0.138,-0.1402,-0.1421,-0.1388,-0.1305,-0.1141,0,0,0,0,0,-0.085,-0.0859,-0.0903,-0.0964,-0.103,-0.108,-0.1207,-0.1292,-0.1435,-0.1367,-0.1442,-0.1395,-0.1337,-0.1358,-0.1258,-0.1399,-0.1416,-0.128,-0.1396,-0.146,-0.148,-0.1459,0,0,0,0,0,0,-0.0813,-0.0849,-0.0866,-0.0857,-0.0871,-0.0943,-0.1014,-0.1114,-0.1097,-0.1231,-0.1195,-0.1296,-0.1249,-0.1345,-0.1217,-0.1224,-0.1267,-0.1311,-0.1307,-0.145,-0.1467,-0.1482,-0.1468,0,0,0,0,0]},{"header":{"parameterUnit":"m.s-1","parameterCategory":2,"la1":30.2991,"la2":30.254,"lo1":-89.0895,"lo2":-89.0444,"dy":0.0017,"dx":0.0017,"nx":28,"ny":28,"refTime":"2026-02-26T09:00:00:Z","depth":"4","parameterNumber":3,"parameterNumberName":"V-component_of_CURRENTS"},"data":[0,0,0,0,0,0,0,0,0,0,0,0,0,0,0,0,0,0,0,0,0,0,0,0,0,0,0,0,0,0,0,0,0,0,0,0,0,0,0,0,0,0,0,0,0,0,0,0,0,0,0,0,0,0,0,0,0,0,-0.0403,-0.0403,0,-0.0399,-0.0399,-0.0399,-0.0389,-0.0389,-0.0389,-0.0389,-0.0377,-0.0377,-0.0377,0,0,0,0,0,0,0,0,0,0,0,0,0,-0.0382,-0.0383,-0.0403,-0.0403,-0.0403,-0.0399,-0.0399,-0.0399,-0.0389,-0.0389,-0.0389,-0.0388,-0.0377,-0.0377,-0.0376,0,0,0,0,0,0,0,0,0,0,0,0,0,-0.0387,-0.0383,-0.0403,-0.0397,-0.0396,-0.0399,-0.0399,-0.0399,-0.039,-0.0389,-0.0389,-0.0388,-0.0377,-0.0377,-0.0376,-0.0385,0,0,-0.0376,-0.0376,0,0,0,0,0,0,0,0,-0.0387,-0.0388,-0.0398,-0.0397,-0.0396,-0.0393,-0.0387,-0.0393,-0.039,-0.0393,-0.0389,-0.0388,-0.0381,-0.0381,-0.0382,-0.0384,-0.0384,-0.0376,-0.0376,-0.0376,-0.0376,0,0,0,0,0,0,0,-0.0386,-0.0388,-0.0402,-0.0398,-0.0397,-0.0387,-0.0387,-0.0388,-0.039,-0.0393,-0.0392,-0.039,-0.0381,-0.0383,-0.0382,-0.0383,-0.0376,-0.0376,-0.0376,-0.0376,-0.0357,-0.0356,0,0,0,0,0,0,-0.0386,-0.0388,-0.0403,-0.0402,-0.0389,-0.0388,-0.0388,-0.0396,-0.039,-0.0389,-0.039,-0.0389,-0.0383,-0.0382,-0.0382,-0.037,-0.0376,-0.0376,-0.0376,-0.0357,-0.0357,-0.0356,0,0,0,0,0,0,-0.0386,-0.0388,-0.0403,-0.0393,-0.0394,-0.0388,-0.0397,-0.0396,-0.0399,-0.0388,-0.0387,-0.0394,-0.0382,-0.0382,-0.0377,-0.037,-0.0376,-0.0376,-0.0358,-0.0357,-0.0356,-0.0361,0,0,0,0,0,0,-0.0386,-0.0388,-0.0402,-0.0394,-0.0395,-0.0413,-0.0397,-0.0396,-0.0398,-0.0397,-0.0391,-0.039,-0.0382,-0.0378,-0.0377,-0.037,-0.0376,-0.0358,-0.0357,-0.0356,-0.0361,-0.036,-0.0359,0,0,0,0,0,-0.0385,-0.0403,-0.0403,-0.0405,-0.0412,-0.0413,-0.0414,-0.0408,-0.0398,-0.0408,-0.0393,-0.039,-0.0371,-0.0378,-0.0377,-0.037,-0.0359,-0.0358,-0.0357,-0.0362,-0.036,-0.0359,0,0,0,0,0,0,-0.0405,-0.0404,-0.0403,-0.0422,-0.0421,-0.0411,-0.042,-0.0412,-0.0409,-0.0407,-0.0391,-0.0389,-0.038,-0.0376,-0.0383,-0.036,-0.0362,-0.0361,-0.0366,-0.0365,-0.0364,-0.0363,-0.0376,0,0,0,0,0,-0.0415,-0.043,-0.0423,-0.0441,-0.0439,-0.043,-0.0432,-0.0428,-0.0419,-0.0418,-0.0408,-0.0393,-0.0376,-0.0372,-0.0362,-0.0358,-0.0327,-0.035,-0.0349,-0.0349,-0.0347,-0.0277,-0.0269,-0.0353,-0.0353,-0.0353,0,0,-0.0433,-0.043,-0.0443,-0.0446,-0.0444,-0.0448,-0.043,-0.0437,-0.0436,-0.0418,-0.0415,-0.0395,-0.0374,-0.0362,-0.0357,-0.0358,-0.0311,-0.0347,-0.0347,-0.0345,-0.0275,-0.0266,-0.0259,-0.0352,-0.0352,-0.0352,0,0,-0.046,-0.0467,-0.0482,-0.0481,-0.0478,-0.0471,-0.0473,-0.0464,-0.0455,-0.0454,-0.0425,-0.0397,-0.0394,-0.0359,-0.0343,-0.0333,-0.0309,-0.0335,-0.0332,-0.0264,-0.0256,-0.0249,-0.021,-0.0199,-0.0335,-0.0335,-0.0335,0,-0.0482,-0.0495,-0.0488,-0.0494,-0.0493,-0.0481,-0.0489,-0.0481,-0.0471,-0.0456,-0.0458,-0.0403,-0.0386,-0.0338,-0.0332,-0.033,-0.0299,-0.0339,-0.0262,-0.0254,-0.0246,-0.0208,-0.0196,-0.0335,-0.0335,-0.0335,-0.0335,0,-0.051,-0.0522,-0.0528,-0.0531,-0.0531,-0.054,-0.0521,-0.0517,-0.0504,-0.0486,-0.0446,-0.0411,-0.0372,-0.0359,-0.0346,-0.0282,-0.028,-0.0268,-0.0264,-0.0238,-0.0199,-0.0187,-0.0335,-0.0335,-0.0335,-0.0335,0,0,-0.0554,-0.0551,-0.0555,-0.0556,-0.055,-0.0553,-0.0544,-0.0526,-0.0508,-0.0488,-0.0452,-0.0405,-0.0375,-0.0353,-0.0318,-0.0261,-0.0183,-0.0247,-0.0244,-0.0209,-0.005,-0.0076,-0.0065,-0.0155,-0.0153,-0.0151,-0.0048,0,-0.0579,-0.0596,-0.0584,-0.06,-0.0605,-0.0583,-0.0574,-0.0554,-0.0528,-0.0493,-0.0432,-0.0394,-0.0375,-0.0348,-0.0286,-0.0209,-0.0149,-0.0214,-0.008,-0.0077,-0.0102,-0.005,-0.0143,-0.0038,-0.0035,-0.0033,-0.0032,0,-0.0608,-0.0611,-0.0632,-0.0622,-0.0621,-0.0631,-0.0603,-0.059,-0.0532,-0.0506,-0.0448,-0.0403,-0.0317,-0.0304,-0.0154,-0.0198,-0.0125,-0.0066,-0.006,-0.0074,-0.0079,-0.0066,-0.0009,-0.001,-0.0012,-0.0014,-0.0015,0,-0.0639,-0.0644,-0.0661,-0.0662,-0.0651,-0.0651,-0.0643,-0.06,-0.058,-0.0508,-0.0484,-0.0381,-0.0328,-0.0216,-0.0109,-0.0122,0.0051,0.0054,0.01,0.0098,0.009,0.0082,0.0173,0.0173,0.0172,0.0172,0.0172,0,-0.0664,-0.0679,-0.0682,-0.0693,-0.0707,-0.0683,-0.0681,-0.0652,-0.0601,-0.0572,-0.0493,-0.0442,-0.0301,-0.0195,-0.0096,0.0035,0.0068,0.0113,0.0134,0.0083,0.0073,0.0099,0.0089,0.0176,0.0175,0.0174,0.0174,0,-0.0695,-0.0698,-0.0719,-0.0721,-0.0727,-0.0737,-0.0727,-0.0714,-0.0661,-0.0617,-0.0594,-0.0474,-0.0335,-0.0202,-0.0016,0.0045,0.0176,0.0215,0.0138,0.015,0.0172,0.016,0.0284,0.0284,0.0285,0.0285,0.0285,0,-0.0707,-0.0724,-0.0753,-0.0776,-0.0784,-0.0795,-0.0802,-0.0756,-0.0736,-0.0635,-0.0612,-0.0475,-0.0386,-0.0142,-0.001,0.0182,0.0202,0.0259,0.0231,0.0181,0.0189,0.0177,0.0166,0.0285,0.0285,0.0285,0.0285,0,-0.0727,-0.0749,-0.0766,-0.0821,-0.0847,-0.0857,-0.0858,-0.0846,-0.0775,-0.0732,-0.0601,-0.0468,-0.0315,-0.0138,0.0007,0.0141,0.0217,0.0261,0.0262,0.0236,0.0183,0.0189,0.0178,0.0286,0.0286,0.0286,0.0286,0,-0.0744,-0.0768,-0.0809,-0.0847,-0.0892,-0.0905,-0.0897,-0.0848,-0.0808,-0.0688,-0.0646,-0.0466,-0.0354,-0.0159,-0.0023,0.0103,0.013,0.0158,0.0165,0.0166,0.0091,0.0004,0.0085,0,0,0,0,0,-0.0748,-0.0779,-0.0829,-0.087,-0.092,-0.0937,-0.0927,-0.0903,-0.0838,-0.0747,-0.0687,-0.0536,-0.0309,-0.0206,-0.0081,-0.0048,0.0125,0.0098,0.0154,0.0289,0.0288,0.0217,0,0,0,0,0,0,-0.0751,-0.0803,-0.0827,-0.0884,-0.092,-0.0956,-0.0949,-0.0904,-0.0836,-0.0755,-0.0627,-0.053,-0.031,-0.0382,-0.0087,-0.0048,-0.0001,0.0214,0.0216,0.0289,0.0289,0.0288,0.0215,0,0,0,0,0]}]]